Flag for Germany Weather past 2 weeks in Rottenburg am Neckar, Baden-Württemberg, Germany

Now
60 °F

Partly sunny.


Feels Like: 60 °F
Forecast: 40 / 73 °F
Wind: 1 mph from Northwest

Location: Stuttgart-Echterdingen

Current Time: Jul 30, 2015 at 12:41:21 PM

Latest Report: Jul 30, 2015 at 10:00 AM


Visibility: 41 mi

Pressure: 30.00 "Hg

Humidity: 63%

Dew point: 47 °F

Location of Rottenburg am NeckarLocation

Historic Weather in Rottenburg am Neckar — Graph

°F

Rottenburg am Neckar temperature yesterday

Maximum temperature yesterday: 64 °F (at 7:00 PM)
Minimum temperature yesterday: 54 °F (at 6:00 AM)
Average temperature yesterday: 58 °F

Past Weeks' High & Low Weather Summary

 TemperatureHumidityPressure
High94 °F (Jul 22, 3:00 PM)92% (Jul 23, 8:00 AM)30.12 "Hg (Jul 23, 8:00 AM)
Low49 °F (Jul 30, 4:00 AM)26% (Jul 22, 3:00 PM)29.65 "Hg (Jul 24, 8:00 PM)
Average71 °F60%29.91 "Hg
* Reported Jul 15 10:00 AM — Jul 30 10:00 AM, Rottenburg am Neckar, Weather by CustomWeather, © 2015

Note: Actual official high and low records may vary slightly from our data, if they occured in-between our weather recording intervals... More about our weather records

Advertising

Rottenburg am Neckar weather history for previous 24 hours

 ConditionsComfort  
Time TempWeatherWind HumidityBarometerVisibility
10:00 AM
Thu, Jul 30
60 °FPartly sunny.1 mph63%30.00 "Hg40 mi
9:00 AM55 °FOvercast.1 mph79%30.01 "Hg43 mi
8:00 AM53 °FOvercast.1 mph79%30.01 "Hg47 mi
7:00 AM50 °FOvercast.1 mph91%30.01 "Hg47 mi
4:00 AM49 °FPassing clouds.N/A85%30.02 "Hg37 mi
3:00 AM52 °FClear.3 mph79%30.00 "Hg37 mi
2:00 AM51 °FClear.1 mph81%30.01 "Hg37 mi
1:00 AM53 °FClear.5 mph78%29.99 "Hg37 mi
10:00 PM
Wed, Jul 29
58 °FPassing clouds.2 mph64%29.95 "Hg37 mi
9:00 PM60 °FPassing clouds.5 mph58%29.92 "Hg37 mi
8:00 PM63 °FScattered clouds.8 mph49%29.90 "Hg37 mi
7:00 PM64 °FMild.9 mph47%29.88 "HgN/A
6:00 PM62 °FScattered clouds.7 mph53%29.88 "Hg25 mi
5:00 PM60 °FPartly sunny.8 mph70%29.88 "Hg22 mi
4:00 PM57 °FRain. Low clouds.7 mph90%29.87 "Hg7 mi
3:00 PM58 °FRain. Overcast.3 mph90%29.85 "Hg9 mi
2:00 PM59 °FOvercast.3 mph78%29.83 "Hg19 mi
1:00 PM58 °FLight rain. Overcast.6 mph82%29.83 "Hg6 mi
12:00 PM62 °FOvercast.2 mph67%29.81 "Hg40 mi
Weather by CustomWeather, © 2015

See weather overviewHow to use our weather pages